Date,TemperatureHighF,TemperatureAvgF,TemperatureLowF,DewpointHighF,DewpointAvgF,DewpointLowF,HumidityHigh,HumidityAvg,HumidityLow,PressureMaxIn,PressureMinIn,WindSpeedMaxMPH,WindSpeedAvgMPH,GustSpeedMaxMPH,PrecipitationSumIn
2012-12-1,32.5,31.3,30.2,30.2,29.3,28.4,93,92,91,30.53,30.51,0,0,0,0.00
2012-12-2,67.2,48.5,33.7,52.9,43.7,31.9,98,84,60,30.58,30.42,3,0,14,0.00
2012-12-3,73.8,58.2,44.8,56.4,50.6,43.2,98,79,52,30.48,30.39,6,0,9,0.00
2012-12-4,72.6,54.7,40.5,56.6,48.6,39.2,98,82,52,30.48,30.35,2,0,10,0.00
2012-12-5,60.5,58.1,55.8,58.5,55.7,52.6,94,91,86,30.35,30.28,4,0,10,0.03
2012-12-6,51.7,45.3,31.2,40.1,36.3,29.1,95,72,57,30.52,30.38,10,1,11,0.01
2012-12-7,48.3,45.8,43.3,46.5,42.1,38.0,96,87,76,30.41,30.21,2,0,4,0.05
2012-12-8,65.9,50.2,44.6,56.6,47.3,42.8,97,90,71,30.23,30.15,1,0,7,0.01
2012-12-9,70.6,56.7,44.4,63.1,54.1,42.8,99,91,76,30.30,30.14,5,0,8,0.03
2012-12-10,60.3,57.9,55.4,59.5,57.1,54.6,98,97,97,30.14,29.99,4,0,5,0.00
2012-12-11,61.8,51.3,41.8,58.4,41.5,31.3,89,70,57,30.34,29.86,4,2,13,0.00
2012-12-12,45.8,42.6,39.7,33.8,31.7,30.3,76,65,60,30.53,30.34,13,3,16,0.00
2012-12-13,52.3,40.1,25.9,35.9,28.9,23.2,90,65,47,30.61,30.49,19,2,19,0.00
2012-12-14,58.7,36.0,20.9,34.4,26.5,19.0,95,73,34,30.58,30.44,3,0,6,0.00
2012-12-15,59.2,42.4,27.9,40.0,32.0,25.4,96,71,35,30.47,30.27,6,0,9,0.00
2012-12-16,58.0,50.3,43.8,53.6,47.0,37.4,97,89,78,30.27,30.07,2,0,11,0.13
2012-12-17,57.4,54.5,48.9,55.4,53.0,48.1,98,95,91,30.08,29.82,9,1,14,0.21
2012-12-18,60.1,47.0,32.6,54.8,43.0,30.0,98,87,46,30.09,29.81,4,0,20,0.02
2012-12-19,63.8,44.6,29.9,42.2,35.1,27.3,100,73,40,30.32,30.07,7,0,13,0.00
2012-12-20,59.2,45.0,32.0,58.3,41.8,30.5,97,89,72,30.35,29.67,13,1,15,0.51
2012-12-21,49.4,39.6,35.8,46.0,27.7,22.1,88,63,50,30.03,29.69,10,2,26,0.00
2012-12-22,51.6,38.1,26.4,25.8,22.6,18.6,81,55,28,30.30,30.02,15,1,18,0.00
2012-12-23,54.9,32.9,20.6,31.4,24.0,18.4,93,73,30,30.34,30.22,2,0,10,0.00
2012-12-24,46.4,43.6,40.2,45.3,40.1,30.5,96,87,63,30.23,30.08,5,0,7,0.14
2012-12-25,56.3,48.1,42.5,47.7,43.8,41.4,97,86,65,30.29,30.11,6,0,12,0.00
2012-12-26,45.9,40.2,34.4,42.8,38.4,33.1,97,94,82,30.24,29.66,15,2,18,1.10
2012-12-27,48.9,36.7,30.7,34.3,28.8,25.2,96,74,53,30.29,29.83,6,0,13,0.00
2012-12-28,43.4,34.0,24.7,30.9,27.4,21.5,93,77,58,30.40,30.20,4,0,5,0.00
2012-12-29,49.6,39.8,33.6,42.0,31.2,23.8,96,72,59,30.19,29.87,10,1,21,0.18
2012-12-30,46.3,35.5,24.3,25.0,22.4,19.7,87,60,38,30.60,30.18,9,0,14,0.00
2012-12-31,39.1,24.1,21.5,29.1,21.5,19.0,95,90,65,30.58,30.54,4,0,5,0.00